Location: Unspecified
(48.7670°N, 0.0000°E)
Time: 06:06:42
(UTC+00:00)

Vanguard 2 Rocket - Pass Details

Date: 24 June 2019
Orbit: 554 x 3326 km, 32.9° (Epoch: 15 July)

Event Time Altitude Azimuth Distance (km) Brightness Sun altitude
Rises 23:52:31 0° 253° (WSW) 4,573 10.3 -17.8°
Reaches altitude 10° 23:55:21 10° 245° (WSW) 3,916 9.9 -17.8°
Maximum altitude 00:05:14 39° 182° (S) 3,172 9.1 -17.8°
Drops below altitude 10° 00:20:30 10° 123° (ESE) 5,979 10.8 -17.7°
Sets 00:26:07 0° 117° (ESE) 7,206 11.3 -17.6°
